Location: Banska Bystrica
(0.0000°N, 19.1500°E)
Time: 09:22:42
(UTC+02:00)

Hubble Space Telescope - Pass Details

Date: 19 February 2019
Orbit: 536 x 540 km, 28.5° (Epoch: 22 October)

Event Time Altitude Azimuth Distance (km) Brightness Sun altitude
Rises 18:26:27 0° 329° (NNW) 2,669 4.6 -7.2°
Reaches altitude 10° 18:29:36 10° 354° (N) 1,780 3.4 -7.9°
Maximum altitude 18:31:53 14° 28° (NNE) 1,520 2.7 -8.5°
Enters shadow 18:34:04 10° 60° (ENE) 1,759 2.8 -9.0°
